This is the latest recevied weather packets stored in our database for station/object NM5PB. If no packets are shown the sender has not sent any weather packets the latest 10 day(s).
| Time | Temp. | Humidity | Pressure | Rain* | Wind** | Luminosity | Snow |
|---|---|---|---|---|---|---|---|
| 1777520464 | 4.44° C | 81% | - | 0 mm | - | - | - |
| 1777519864 | 5° C | 81% | - | 0 mm | - | - | - |
| 1777519264 | 5° C | 79% | - | 0 mm | - | - | - |
| 1777518664 | 5.56° C | 77% | - | 0 mm | - | - | - |
| 1777518064 | 5.56° C | 77% | - | 0 mm | - | - | - |
| 1777517464 | 6.11° C | 74% | - | 0 mm | - | - | - |
| 1777516864 | 6.67° C | 69% | - | 0 mm | - | - | - |
| 1777516264 | 7.22° C | 69% | - | 0 mm | - | - | - |
| 1777515664 | 7.22° C | 65% | - | 0 mm | - | - | - |
| 1777515064 | 7.78° C | 64% | - | 0 mm | - | - | - |
| 1777514464 | 8.33° C | 67% | - | 0 mm | - | - | - |
| 1777513864 | 8.89° C | 56% | - | 0 mm | - | - | - |
| 1777513264 | 10° C | 54% | - | 0 mm | - | - | - |
| 1777512664 | 10° C | 51% | - | 0 mm | - | - | - |
| 1777512064 | 10.56° C | 49% | - | 0 mm | - | - | - |
| 1777511464 | 11.11° C | 47% | - | 0 mm | - | - | - |
| 1777510864 | 11.67° C | 45% | - | 0 mm | - | - | - |
| 1777510264 | 11.67° C | 45% | - | 0 mm | - | - | - |
| 1777509664 | 12.22° C | 44% | - | 0 mm | - | - | - |
| 1777509064 | 12.22° C | 44% | - | 0 mm | - | - | - |
| 1777508464 | 12.22° C | 43% | - | 0 mm | - | - | - |
| 1777507864 | 12.78° C | 42% | - | 0 mm | - | - | - |
| 1777507264 | 12.78° C | 41% | - | 0 mm | - | - | - |
| 1777506664 | 13.33° C | 41% | - | 0 mm | - | - | - |
| 1777506064 | 13.33° C | 40% | - | 0 mm | - | - | - |
* Rain latest hour (hover to see other rain measurements)
** Current wind speed in m/s (hover to see current wind gust speed)